Location: Bouchavesnes-Bergen
(49.9859°N, 2.9203°E)
Time: 03:09:19
(UTC+00:00)

Meteor 2-12 Rocket - Pass Details

Date: 09 March 2021
Orbit: 936 x 956 km, 82.5° (Epoch: 11 April)

Event Time Altitude Azimuth Distance (km) Brightness Sun altitude
Rises 05:15:51 0° 348° (NNW) 3,643 7.4 -10.3°
Reaches altitude 10° 05:18:21 10° 348° (NNW) 2,695 6.7 -9.9°
Maximum altitude 05:24:31 78° 263° (W) 982 4.4 -8.9°
Drops below altitude 10° 05:30:39 10° 178° (S) 2,681 6.8 -7.9°
Sets 05:33:08 0° 177° (S) 3,622 7.5 -7.5°
